GW4545 Weather Reports


Display with metric or nautical units.
time (UTC)temp
F
wind
direction
speed
MPH
gust
MPH
rain 1hr
in
rain 24hr
in
rain mn
in
humidity
%
barometer
mb
20260505013047 73 254 8.0 14.0 0.00 0.00 0.00 58 1011.5
20260505011545 75 264 7.0 10.0 0.00 0.00 0.00 58 1011.6
20260505004554 77 146 3.0 7.0 0.00 0.00 0.00 56 1011.8
20260505003047 77 167 1.0 8.0 0.00 0.00 0.00 56 1011.7
20260505001552 77 111 2.0 7.0 0.00 0.00 0.00 60 1011.7
20260505000056 77 163 4.0 9.0 0.00 0.00 0.00 57 1011.9
20260504234545 77 194 3.0 6.0 0.00 0.00 0.00 58 1011.8
20260504233043 76 140 1.0 6.0 0.00 0.00 0.00 60 1011.9
20260504231541 77 9 1.0 5.0 0.00 0.00 0.00 57 1012.0
20260504230042 76 0 2.0 7.0 0.00 0.00 0.00 59 1012.2
20260504224550 75 133 1.0 5.0 0.00 0.00 0.00 60 1012.4
20260504223050 74 67 3.0 7.0 0.00 0.00 0.00 60 1012.6
20260504221546 74 198 1.0 6.0 0.00 0.00 0.00 62 1012.8
20260504214547 72 0 1.0 7.0 0.00 0.00 0.00 64 1013.1
20260504213108 72 32 3.0 8.0 0.00 0.00 0.00 67 1013.2
20260504211545 71 96 2.0 9.0 0.00 0.00 0.00 67 1013.5
20260504210048 70 68 3.0 8.0 0.00 0.00 0.00 69 1013.6
20260504204555 69 46 2.0 7.0 0.00 0.00 0.00 69 1013.7
20260504203043 69 117 3.0 10.0 0.00 0.00 0.00 67 1013.9
20260504201551 68 98 3.0 7.0 0.00 0.00 0.00 71 1014.1
20260504200045 66 37 3.0 9.0 0.00 0.00 0.00 70 1014.3
20260504194549 67 128 3.0 8.0 0.00 0.00 0.00 70 1014.4
20260504193059 66 0 1.0 8.0 0.00 0.00 0.00 73 1014.4
20260504191544 65 94 2.0 9.0 0.00 0.00 0.00 73 1014.5
20260504190051 65 28 1.0 8.0 0.00 0.00 0.00 78 1014.6
20260504184544 63 43 3.0 8.0 0.00 0.00 0.00 76 1014.5
20260504183057 63 5 2.0 7.0 0.00 0.00 0.00 75 1014.7
20260504181546 64 131 3.0 9.0 0.00 0.00 0.00 75 1014.7
20260504180122 63 62 2.0 6.0 0.00 0.00 0.00 74 1014.7
20260504174551 63 107 1.0 7.0 0.00 0.00 0.00 75 1014.7
20260504173043 62 46 1.0 7.0 0.00 0.00 0.00 78 1014.4
20260504171545 62 96 2.0 8.0 0.00 0.00 0.00 75 1014.3
20260504081541 57 0 0.0 2.0 0.00 0.00 0.00 81 1010.0
20260504044545 64 250 2.0 4.0 0.00 0.00 0.00 67 1009.4
20260504043055 66 230 2.0 3.0 0.00 0.00 0.00 63 1009.3
20260504041542 67 227 0.0 5.0 0.00 0.00 0.00 61 1009.2
20260504040044 68 227 2.0 5.0 0.00 0.00 0.00 60 1008.9
20260504034552 69 0 1.0 5.0 0.00 0.00 0.00 59 1008.8
20260504033042 70 244 2.0 6.0 0.00 0.00 0.00 55 1008.6
20260504031547 72 235 3.0 5.0 0.00 0.00 0.00 52 1008.7
20260504030048 74 126 0.0 6.0 0.00 0.00 0.00 47 1008.5
20260504024542 76 198 3.0 8.0 0.00 0.00 0.00 44 1008.2
20260504023053 79 236 3.0 5.0 0.00 0.00 0.00 44 1008.4
20260504021546 81 220 3.0 5.0 0.00 0.00 0.00 41 1008.4
20260504020056 83 248 2.0 4.0 0.00 0.00 0.00 43 1008.4
20260504014551 85 218 2.0 3.0 0.00 0.00 0.00 43 1008.3